Regional Weather Roundup
Issued by NWS

Home | Current Version | Previous Version | Graphics & Text | Print | Product List | Glossary On
Versions: 1 2 3 4 5 6 7 8 9 10 11 12 13 14 15 16 17 18 19 20 21 22 23 24 25 26 27 28 29 30 31 32 33 34 35 36 37 38 39 40 41 42 43 44 45 46 47 48 49 50
000
ASUS43 KLSX 250657
RWRMO

WEATHER SUMMARY FOR MISSOURI
NATIONAL WEATHER SERVICE SPRINGFIELD MO
200 AM CDT MON SEP 25 2017

NOTE: "FAIR" INDICATES FEW OR NO CLOUDS BELOW 12,000 FEET WITH NO
       SIGNIFICANT WEATHER AND/OR OBSTRUCTIONS TO VISIBILITY.
       CURRENT SKY AND/OR WEATHER CONDITIONS ARE NOT AVAILABLE FOR
       CHILLICOTHE AND FARMINGTON.

MOZ001>031-035>038-043-044-053-054-250800-
...NORTHERN AND WESTERN MISSOURI...

CITY           SKY/WX    TMP DP  RH WIND       PRES   REMARKS
KANSAS CTY INT CLOUDY    71  65  81 S8        29.93R
LEE`S SUMMIT   CLEAR     73  65  75 S12       29.94S
ST JOSEPH      PTCLDY    73  67  81 S7        29.92S
CHILLICOTHE      N/A     67  66  97 CALM      29.95S

$$
MOZ066>068-077>081-088>096-101>105-250800-
...SOUTHWEST MISSOURI...

CITY           SKY/WX    TMP DP  RH WIND       PRES   REMARKS
SPRINGFIELD    CLEAR     69  66  90 S8        29.98R
JOPLIN         CLEAR     72  66  81 SE8       29.96S

$$
MOZ032>034-039>042-045>050-055>058-069>072-250800-
...CENTRAL MISSOURI...

CITY           SKY/WX    TMP DP  RH WIND       PRES   REMARKS
COLUMBIA       NOT AVBL
JEFFERSON CITY CLEAR     70  64  81 CALM      29.96S
ROLLA          CLEAR     68  62  81 S8        30.00S
SEDALIA        CLEAR     69  65  86 S7        29.97R
WARRENSBURG    CLEAR     66  63  88 S3        29.95R

$$
MOZ051-052-059>065-250800-
...EAST CENTRAL MISSOURI...

CITY           SKY/WX    TMP DP  RH WIND       PRES   REMARKS
ST LOUIS INTL  CLEAR     76  65  68 S5        29.98S

$$
MOZ072>076-082>087-097>100-106>115-250800-
...SOUTH CENTRAL AND SOUTHEAST MISSOURI...

CITY           SKY/WX    TMP DP  RH WIND       PRES   REMARKS
CAPE GIRARDEAU CLEAR     63  61  93 CALM      29.98S
POPLAR BLUFF   CLEAR     65  65 100 CALM      29.98R
WEST PLAINS    CLEAR     64  62  93 CALM      30.02R

$$



USA.gov is the U.S. government's official web portal to all federal, state and local government web resources and services.